| time (UTC) | temp F | wind direction | speed MPH | gust MPH | rain 1hr in | rain 24hr in | rain mn in | humidity % | barometer mb |
| 20260506101704 | 46 | 68 | 2.0 | 6.0 | 0.00 | 0.02 | 0.00 | 86 | 1013.4 |
| 20260506101654 | 47 | 103 | 2.0 | 6.0 | 0.00 | 0.02 | 0.00 | 86 | 1013.3 |
| 20260506100639 | 46 | 25 | 2.0 | 9.0 | 0.00 | 0.02 | 0.00 | 86 | 1013.1 |
| 20260506100631 | 46 | 20 | 2.0 | 6.0 | 0.00 | 0.02 | 0.00 | 86 | 1012.9 |
| 20260506095638 | 47 | 88 | 2.0 | 5.0 | 0.00 | 0.02 | 0.00 | 86 | 1012.7 |
| 20260506095121 | 47 | 358 | 2.0 | 5.0 | 0.00 | 0.02 | 0.00 | 87 | 1012.7 |
| 20260506094622 | 47 | 82 | 3.0 | 11.0 | 0.00 | 0.02 | 0.00 | 87 | 1012.6 |
| 20260506094059 | 47 | 41 | 4.0 | 11.0 | 0.00 | 0.02 | 0.00 | 86 | 1012.4 |
| 20260506093557 | 47 | 11 | 4.0 | 8.0 | 0.00 | 0.02 | 0.00 | 86 | 1012.3 |
| 20260506093042 | 47 | 55 | 4.0 | 12.0 | 0.00 | 0.02 | 0.00 | 86 | 1012.1 |
| 20260506092519 | 47 | 47 | 4.0 | 12.0 | 0.00 | 0.03 | 0.00 | 86 | 1012.1 |
| 20260506092020 | 47 | 15 | 4.0 | 10.0 | 0.00 | 0.03 | 0.00 | 86 | 1012.2 |
| 20260506091521 | 47 | 42 | 3.0 | 10.0 | 0.00 | 0.04 | 0.00 | 86 | 1012.2 |
| 20260506091017 | 47 | 55 | 3.0 | 10.0 | 0.00 | 0.04 | 0.00 | 86 | 1012.3 |
| 20260506090514 | 47 | 359 | 2.0 | 8.0 | 0.00 | 0.04 | 0.00 | 86 | 1012.4 |
| 20260506090013 | 47 | 12 | 3.0 | 8.0 | 0.00 | 0.04 | 0.00 | 86 | 1012.3 |
| 20260506085449 | 47 | 26 | 3.0 | 8.0 | 0.00 | 0.05 | 0.00 | 86 | 1012.3 |
| 20260506084941 | 47 | 41 | 3.0 | 8.0 | 0.00 | 0.06 | 0.00 | 86 | 1012.4 |
| 20260506084420 | 47 | 108 | 3.0 | 8.0 | 0.00 | 0.07 | 0.00 | 86 | 1012.3 |
| 20260506083913 | 47 | 54 | 4.0 | 8.0 | 0.00 | 0.08 | 0.00 | 86 | 1012.0 |
| 20260506083413 | 47 | 89 | 4.0 | 8.0 | 0.00 | 0.08 | 0.00 | 86 | 1012.1 |
| 20260506082915 | 47 | 38 | 3.0 | 11.0 | 0.00 | 0.10 | 0.00 | 86 | 1012.3 |
| 20260506082415 | 46 | 14 | 3.0 | 11.0 | 0.00 | 0.11 | 0.00 | 87 | 1012.3 |
| 20260506081911 | 46 | 128 | 3.0 | 7.0 | 0.00 | 0.18 | 0.00 | 87 | 1012.1 |
| 20260506081410 | 46 | 51 | 3.0 | 8.0 | 0.00 | 0.23 | 0.00 | 88 | 1012.0 |
| 20260506080910 | 46 | 21 | 3.0 | 8.0 | 0.00 | 0.25 | 0.00 | 87 | 1012.0 |
| 20260506080411 | 46 | 53 | 3.0 | 8.0 | 0.00 | 0.28 | 0.00 | 88 | 1012.0 |
| 20260506073308 | 46 | 99 | 4.0 | 10.0 | 0.00 | 0.53 | 0.00 | 90 | 1011.4 |
| 20260506072742 | 46 | 44 | 2.0 | 7.0 | 0.00 | 0.59 | 0.00 | 90 | 1011.6 |
| 20260506072219 | 46 | 155 | 3.0 | 11.0 | 0.00 | 0.64 | 0.00 | 91 | 1011.8 |
| 20260506072151 | 46 | 20 | 4.0 | 11.0 | 0.00 | 0.66 | 0.00 | 91 | 1011.5 |
| 20260506071139 | 46 | 47 | 4.0 | 9.0 | 0.00 | 0.69 | 0.00 | 92 | 1011.6 |
| 20260506070641 | 46 | 69 | 5.0 | 15.0 | 0.00 | 0.75 | 0.00 | 92 | 1011.8 |
| 20260506070137 | 46 | 62 | 5.0 | 15.0 | 0.00 | 0.76 | 0.00 | 92 | 1011.4 |
| 20260506062515 | 46 | 313 | 5.0 | 12.0 | 0.00 | 1.02 | 0.00 | 93 | 1012.1 |
| 20260506062018 | 46 | 71 | 5.0 | 12.0 | 0.00 | 1.03 | 0.00 | 93 | 1012.2 |
| 20260506061511 | 46 | 13 | 4.0 | 12.0 | 0.00 | 1.04 | 0.00 | 94 | 1012.2 |
| 20260506061012 | 46 | 49 | 5.0 | 10.0 | 0.00 | 1.04 | 0.00 | 94 | 1012.1 |
| 20260506060506 | 46 | 141 | 5.0 | 10.0 | 0.00 | 1.05 | 0.00 | 94 | 1012.1 |
| 20260506051248 | 46 | 38 | 2.0 | 6.0 | 0.00 | 1.06 | 0.00 | 93 | 1012.2 |
| 20260506050723 | 46 | 40 | 3.0 | 9.0 | 0.00 | 1.06 | 0.00 | 92 | 1012.0 |
| 20260506050215 | 46 | 70 | 3.0 | 9.0 | 0.00 | 1.06 | 0.00 | 92 | 1011.9 |
| 20260506044641 | 47 | 81 | 4.0 | 8.0 | 0.00 | 1.06 | 1.06 | 91 | 1011.9 |
| 20260506044626 | 47 | 133 | 4.0 | 9.0 | 0.00 | 1.06 | 1.06 | 91 | 1011.6 |
| 20260506043634 | 47 | 115 | 5.0 | 10.0 | 0.00 | 1.06 | 1.06 | 91 | 1011.6 |
| 20260506043107 | 47 | 26 | 5.0 | 10.0 | 0.00 | 1.06 | 1.06 | 91 | 1011.4 |
| 20260506042605 | 47 | 66 | 5.0 | 10.0 | 0.00 | 1.06 | 1.06 | 91 | 1011.4 |
| 20260506042035 | 47 | 331 | 5.0 | 15.0 | 0.00 | 1.06 | 1.06 | 92 | 1011.6 |
| 20260506041534 | 47 | 269 | 5.0 | 15.0 | 0.00 | 1.06 | 1.06 | 92 | 1011.8 |
| 20260506041036 | 47 | 93 | 4.0 | 11.0 | 0.00 | 1.06 | 1.06 | 92 | 1011.4 |
| 20260506040957 | 47 | 23 | 4.0 | 11.0 | 0.00 | 1.06 | 1.06 | 92 | 1011.2 |
| 20260506040005 | 47 | 56 | 4.0 | 13.0 | 0.00 | 1.06 | 1.06 | 93 | 1011.1 |
| 20260506035437 | 47 | 43 | 5.0 | 13.0 | 0.00 | 1.06 | 1.06 | 93 | 1011.2 |
| 20260506034934 | 47 | 86 | 5.0 | 12.0 | 0.00 | 1.06 | 1.06 | 93 | 1011.3 |
| 20260506034407 | 47 | 53 | 4.0 | 8.0 | 0.00 | 1.06 | 1.06 | 93 | 1010.8 |
| 20260506033903 | 47 | 53 | 3.0 | 10.0 | 0.00 | 1.06 | 1.06 | 93 | 1010.7 |
| 20260506033400 | 47 | 238 | 3.0 | 10.0 | 0.00 | 1.06 | 1.06 | 93 | 1010.7 |
| 20260506032853 | 47 | 26 | 3.0 | 7.0 | 0.00 | 1.06 | 1.06 | 93 | 1010.7 |
| 20260506032351 | 47 | 48 | 3.0 | 7.0 | 0.00 | 1.06 | 1.06 | 93 | 1010.7 |
| 20260506031824 | 47 | 62 | 3.0 | 7.0 | 0.00 | 1.06 | 1.06 | 93 | 1010.4 |
| 20260506031747 | 47 | 58 | 4.0 | 9.0 | 0.00 | 1.06 | 1.06 | 93 | 1010.3 |
| 20260506030731 | 47 | 29 | 4.0 | 9.0 | 0.00 | 1.06 | 1.06 | 93 | 1010.0 |
| 20260506030228 | 47 | 63 | 4.0 | 9.0 | 0.00 | 1.06 | 1.06 | 93 | 1010.1 |
| 20260506025724 | 47 | 96 | 3.0 | 8.0 | 0.00 | 1.06 | 1.06 | 93 | 1010.0 |
| 20260506025221 | 47 | 105 | 2.0 | 8.0 | 0.00 | 1.06 | 1.06 | 93 | 1009.9 |
| 20260506024652 | 47 | 62 | 3.0 | 7.0 | 0.00 | 1.06 | 1.06 | 93 | 1010.0 |
| 20260506024150 | 47 | 134 | 4.0 | 9.0 | 0.00 | 1.06 | 1.06 | 93 | 1009.7 |
| 20260506023622 | 47 | 21 | 4.0 | 10.0 | 0.00 | 1.06 | 1.06 | 93 | 1009.7 |
| 20260506023118 | 47 | 86 | 3.0 | 10.0 | 0.00 | 1.06 | 1.06 | 93 | 1009.5 |
| 20260506022616 | 47 | 42 | 3.0 | 9.0 | 0.00 | 1.06 | 1.06 | 92 | 1009.3 |
| 20260506022113 | 47 | 31 | 3.0 | 9.0 | 0.00 | 1.06 | 1.06 | 92 | 1009.3 |
| 20260506021552 | 47 | 63 | 3.0 | 10.0 | 0.00 | 1.06 | 1.06 | 92 | 1009.3 |
| 20260506021053 | 47 | 23 | 3.0 | 10.0 | 0.00 | 1.06 | 1.06 | 92 | 1009.1 |
| 20260506020550 | 47 | 84 | 4.0 | 10.0 | 0.00 | 1.06 | 1.06 | 92 | 1009.2 |
| 20260506020053 | 47 | 7 | 4.0 | 10.0 | 0.00 | 1.06 | 1.06 | 92 | 1009.2 |
| 20260506020029 | 47 | 139 | 4.0 | 9.0 | 0.00 | 1.06 | 1.06 | 92 | 1009.3 |
| 20260506015535 | 47 | 84 | 5.0 | 13.0 | 0.00 | 1.06 | 1.06 | 92 | 1009.2 |
| 20260506014517 | 47 | 35 | 4.0 | 13.0 | 0.00 | 1.06 | 1.06 | 92 | 1009.4 |
| 20260506014457 | 47 | 58 | 3.0 | 11.0 | 0.00 | 1.06 | 1.06 | 92 | 1009.5 |
| 20260506013513 | 47 | 36 | 2.0 | 11.0 | 0.00 | 1.06 | 1.06 | 92 | 1009.6 |
| 20260506013011 | 48 | 65 | 2.0 | 6.0 | 0.00 | 1.06 | 1.06 | 92 | 1009.8 |
| 20260506012514 | 48 | 92 | 3.0 | 9.0 | 0.00 | 1.06 | 1.06 | 92 | 1009.5 |
| 20260506012010 | 47 | 57 | 4.0 | 9.0 | 0.00 | 1.06 | 1.06 | 92 | 1009.2 |
| 20260506011955 | 47 | 47 | 3.0 | 7.0 | 0.00 | 1.06 | 1.06 | 92 | 1008.6 |
| 20260506010946 | 47 | 40 | 3.0 | 9.0 | 0.00 | 1.06 | 1.06 | 92 | 1008.7 |
| 20260506010924 | 47 | 72 | 4.0 | 11.0 | 0.00 | 1.06 | 1.06 | 92 | 1008.5 |
| 20260506005916 | 48 | 257 | 3.0 | 11.0 | 0.00 | 1.06 | 1.06 | 92 | 1008.6 |
| 20260506005419 | 48 | 138 | 3.0 | 8.0 | 0.00 | 1.06 | 1.06 | 92 | 1008.7 |
| 20260506004917 | 48 | 57 | 4.0 | 9.0 | 0.00 | 1.06 | 1.06 | 91 | 1008.7 |
| 20260506004419 | 48 | 271 | 3.0 | 9.0 | 0.00 | 1.06 | 1.06 | 91 | 1008.7 |
| 20260506003853 | 49 | 80 | 3.0 | 10.0 | 0.00 | 1.06 | 1.06 | 91 | 1008.6 |
| 20260506003348 | 49 | 143 | 3.0 | 10.0 | 0.00 | 1.06 | 1.06 | 91 | 1008.7 |
| 20260506002845 | 49 | 113 | 4.0 | 11.0 | 0.00 | 1.06 | 1.06 | 91 | 1008.5 |
| 20260506002341 | 49 | 84 | 4.0 | 11.0 | 0.00 | 1.06 | 1.06 | 91 | 1008.6 |
| 20260506001839 | 49 | 76 | 4.0 | 12.0 | 0.00 | 1.06 | 1.06 | 91 | 1008.4 |
| 20260506001313 | 49 | 37 | 5.0 | 12.0 | 0.00 | 1.06 | 1.06 | 90 | 1008.3 |
| 20260506000809 | 49 | 26 | 5.0 | 12.0 | 0.00 | 1.06 | 1.06 | 90 | 1008.3 |
| 20260506000753 | 49 | 95 | 5.0 | 12.0 | 0.00 | 1.06 | 1.06 | 90 | 1008.3 |
| 20260506000243 | 49 | 21 | 5.0 | 12.0 | 0.00 | 1.06 | 1.06 | 91 | 1008.4 |
| 20260505235305 | 49 | 94 | 4.0 | 12.0 | 0.00 | 1.06 | 1.06 | 91 | 1008.2 |
| 20260505234729 | 49 | 56 | 4.0 | 9.0 | 0.00 | 1.06 | 1.06 | 90 | 1008.2 |
| 20260505234201 | 49 | 20 | 3.0 | 8.0 | 0.00 | 1.06 | 1.06 | 90 | 1008.2 |
| 20260505233639 | 50 | 41 | 3.0 | 11.0 | 0.00 | 1.06 | 1.06 | 90 | 1007.7 |
| 20260505233623 | 49 | 58 | 5.0 | 11.0 | 0.00 | 1.06 | 1.06 | 90 | 1007.9 |
| 20260505232633 | 49 | 296 | 6.0 | 11.0 | 0.00 | 1.06 | 1.06 | 90 | 1007.6 |
| 20260505232135 | 50 | 100 | 5.0 | 11.0 | 0.00 | 1.06 | 1.06 | 90 | 1007.5 |
| 20260505231632 | 50 | 94 | 3.0 | 9.0 | 0.00 | 1.06 | 1.06 | 90 | 1007.7 |
| 20260505231131 | 50 | 68 | 3.0 | 8.0 | 0.00 | 1.06 | 1.06 | 91 | 1007.7 |
| 20260505230628 | 50 | 82 | 3.0 | 8.0 | 0.00 | 1.06 | 1.06 | 91 | 1007.6 |
| 20260505230128 | 50 | 101 | 3.0 | 8.0 | 0.00 | 1.06 | 1.06 | 91 | 1007.4 |
| 20260505225626 | 50 | 145 | 3.0 | 8.0 | 0.00 | 1.06 | 1.06 | 91 | 1007.2 |
| 20260505225124 | 50 | 151 | 4.0 | 11.0 | 0.00 | 1.06 | 1.06 | 91 | 1007.2 |
| 20260505224601 | 50 | 50 | 6.0 | 16.0 | 0.00 | 1.06 | 1.06 | 90 | 1007.0 |
| 20260505224059 | 51 | 80 | 5.0 | 16.0 | 0.00 | 1.06 | 1.06 | 90 | 1006.8 |
| 20260505223601 | 51 | 106 | 4.0 | 12.0 | 0.00 | 1.06 | 1.06 | 90 | 1007.0 |
| 20260505223101 | 51 | 85 | 3.0 | 14.0 | 0.00 | 1.06 | 1.06 | 91 | 1007.1 |
| 20260505222534 | 51 | 186 | 5.0 | 14.0 | 0.00 | 1.06 | 1.06 | 91 | 1007.1 |
| 20260505222030 | 52 | 67 | 6.0 | 14.0 | 0.00 | 1.06 | 1.06 | 90 | 1006.9 |
| 20260505221525 | 52 | 68 | 4.0 | 14.0 | 0.00 | 1.06 | 1.06 | 90 | 1006.6 |
| 20260505221021 | 52 | 169 | 4.0 | 10.0 | 0.00 | 1.06 | 1.06 | 90 | 1006.6 |
| 20260505220457 | 52 | 53 | 4.0 | 13.0 | 0.00 | 1.06 | 1.06 | 90 | 1006.6 |
| 20260505215931 | 53 | 48 | 6.0 | 13.0 | 0.00 | 1.06 | 1.06 | 90 | 1006.8 |
| 20260505215428 | 53 | 70 | 7.0 | 14.0 | 0.00 | 1.06 | 1.06 | 89 | 1006.4 |
| 20260505214923 | 53 | 81 | 5.0 | 14.0 | 0.00 | 1.06 | 1.06 | 89 | 1006.3 |
| 20260505214354 | 53 | 188 | 4.0 | 12.0 | 0.00 | 1.06 | 1.06 | 89 | 1006.6 |
| 20260505213851 | 53 | 192 | 4.0 | 12.0 | 0.00 | 1.06 | 1.06 | 89 | 1006.8 |
| 20260505213324 | 53 | 62 | 4.0 | 12.0 | 0.00 | 1.06 | 1.06 | 89 | 1006.7 |
| 20260505212821 | 53 | 89 | 4.0 | 14.0 | 0.00 | 1.06 | 1.06 | 90 | 1006.7 |
| 20260505212258 | 53 | 26 | 6.0 | 14.0 | 0.00 | 1.06 | 1.06 | 90 | 1006.6 |
| 20260505212252 | 54 | 54 | 6.0 | 14.0 | 0.00 | 1.06 | 1.06 | 89 | 1006.4 |
| 20260505211226 | 54 | 347 | 4.0 | 11.0 | 0.00 | 1.06 | 1.06 | 90 | 1006.3 |
| 20260505210659 | 54 | 357 | 5.0 | 12.0 | 0.00 | 1.06 | 1.06 | 90 | 1006.4 |
| 20260505210157 | 54 | 65 | 5.0 | 12.0 | 0.00 | 1.06 | 1.06 | 90 | 1006.3 |
| 20260505210146 | 54 | 72 | 4.0 | 12.0 | 0.00 | 1.06 | 1.06 | 90 | 1006.3 |
| 20260505205144 | 55 | 131 | 4.0 | 12.0 | 0.00 | 1.06 | 1.06 | 90 | 1006.3 |
| 20260505204638 | 55 | 52 | 4.0 | 10.0 | 0.01 | 1.06 | 1.06 | 91 | 1006.4 |
| 20260505204135 | 55 | 49 | 4.0 | 11.0 | 0.01 | 1.06 | 1.06 | 91 | 1006.3 |
| 20260505203610 | 55 | 49 | 3.0 | 11.0 | 0.01 | 1.06 | 1.06 | 91 | 1006.1 |
| 20260505203107 | 55 | 111 | 2.0 | 8.0 | 0.01 | 1.06 | 1.06 | 91 | 1006.4 |
| 20260505202604 | 55 | 1 | 2.0 | 8.0 | 0.01 | 1.06 | 1.06 | 91 | 1006.4 |
| 20260505202101 | 55 | 86 | 3.0 | 8.0 | 0.01 | 1.06 | 1.06 | 92 | 1006.4 |
| 20260505201537 | 55 | 295 | 4.0 | 10.0 | 0.01 | 1.06 | 1.06 | 91 | 1006.4 |
| 20260505201010 | 55 | 159 | 5.0 | 11.0 | 0.01 | 1.06 | 1.06 | 91 | 1006.3 |
| 20260505200445 | 55 | 98 | 5.0 | 11.0 | 0.01 | 1.06 | 1.06 | 91 | 1006.1 |
| 20260505195939 | 56 | 103 | 4.0 | 11.0 | 0.01 | 1.06 | 1.06 | 92 | 1005.9 |
| 20260505195439 | 56 | 56 | 3.0 | 11.0 | 0.01 | 1.06 | 1.06 | 91 | 1006.3 |
| 20260505194916 | 56 | 70 | 3.0 | 8.0 | 0.00 | 1.05 | 1.05 | 91 | 1006.6 |
| 20260505194413 | 56 | 115 | 3.0 | 8.0 | 0.00 | 1.05 | 1.05 | 91 | 1006.5 |
| 20260505194357 | 56 | 64 | 2.0 | 13.0 | 0.00 | 1.05 | 1.05 | 91 | 1006.7 |
| 20260505193411 | 56 | 185 | 3.0 | 13.0 | 0.00 | 1.05 | 1.05 | 91 | 1006.5 |
| 20260505193339 | 56 | 34 | 6.0 | 13.0 | 0.00 | 1.05 | 1.05 | 91 | 1005.8 |
| 20260505192332 | 56 | 117 | 7.0 | 13.0 | 0.00 | 1.05 | 1.05 | 92 | 1005.5 |
| 20260505191834 | 56 | 21 | 5.0 | 12.0 | 0.00 | 1.05 | 1.05 | 92 | 1005.1 |
| 20260505191322 | 56 | 53 | 4.0 | 12.0 | 0.00 | 1.05 | 1.05 | 92 | 1005.7 |
| 20260505191317 | 57 | 114 | 4.0 | 11.0 | 0.00 | 1.05 | 1.05 | 92 | 1005.8 |
| 20260505190252 | 57 | 49 | 4.0 | 13.0 | 0.00 | 1.05 | 1.05 | 92 | 1005.7 |
| 20260505185729 | 57 | 91 | 4.0 | 13.0 | 0.01 | 1.05 | 1.05 | 92 | 1005.7 |
| 20260505185207 | 57 | 100 | 4.0 | 9.0 | 0.01 | 1.05 | 1.05 | 92 | 1006.0 |
| 20260505184705 | 57 | 34 | 5.0 | 13.0 | 0.01 | 1.05 | 1.05 | 91 | 1005.9 |
| 20260505184142 | 57 | 135 | 6.0 | 13.0 | 0.01 | 1.05 | 1.05 | 92 | 1005.7 |
| 20260505183641 | 57 | 23 | 6.0 | 14.0 | 0.01 | 1.05 | 1.05 | 92 | 1005.5 |
| 20260505183139 | 58 | 24 | 6.0 | 14.0 | 0.01 | 1.05 | 1.05 | 91 | 1005.4 |
| 20260505183126 | 58 | 101 | 4.0 | 11.0 | 0.01 | 1.05 | 1.05 | 91 | 1005.5 |
| 20260505182119 | 59 | 115 | 5.0 | 11.0 | 0.01 | 1.05 | 1.05 | 91 | 1005.4 |
| 20260505181616 | 59 | 108 | 5.0 | 11.0 | 0.01 | 1.05 | 1.05 | 91 | 1005.4 |
| 20260505181113 | 60 | 45 | 4.0 | 11.0 | 0.01 | 1.05 | 1.05 | 90 | 1005.4 |
| 20260505180614 | 61 | 116 | 3.0 | 9.0 | 0.01 | 1.05 | 1.05 | 89 | 1005.5 |
| 20260505180053 | 63 | 165 | 3.0 | 8.0 | 0.00 | 1.04 | 1.04 | 90 | 1005.0 |
| 20260505180039 | 63 | 165 | 3.0 | 8.0 | 0.00 | 1.04 | 1.04 | 91 | 1005.0 |
| 20260505175031 | 64 | 53 | 3.0 | 8.0 | 0.00 | 1.04 | 1.04 | 91 | 1004.9 |
| 20260505175014 | 64 | 6 | 2.0 | 7.0 | 0.00 | 1.04 | 1.04 | 91 | 1005.0 |
| 20260505174012 | 64 | 47 | 1.0 | 6.0 | 0.00 | 1.04 | 1.04 | 91 | 1005.1 |
| 20260505173511 | 64 | 119 | 1.0 | 6.0 | 0.00 | 1.04 | 1.04 | 91 | 1005.2 |
| 20260505172944 | 64 | 84 | 1.0 | 5.0 | 0.00 | 1.04 | 1.04 | 91 | 1005.1 |
| 20260505172425 | 64 | 20 | 1.0 | 5.0 | 0.00 | 1.04 | 1.04 | 91 | 1005.1 |
| 20260505171923 | 64 | 29 | 1.0 | 3.0 | 0.00 | 1.04 | 1.04 | 91 | 1005.1 |
| 20260505171356 | 64 | 91 | 1.0 | 8.0 | 0.00 | 1.04 | 1.04 | 91 | 1005.0 |
| 20260505170855 | 64 | 51 | 2.0 | 8.0 | 0.00 | 1.04 | 1.04 | 91 | 1004.9 |
| 20260505170357 | 64 | 75 | 2.0 | 6.0 | 0.00 | 1.04 | 1.04 | 91 | 1004.8 |
| 20260505165832 | 65 | 86 | 2.0 | 6.0 | 0.00 | 1.04 | 1.04 | 90 | 1004.9 |
| 20260505165322 | 65 | 66 | 3.0 | 7.0 | 0.00 | 1.04 | 1.04 | 90 | 1004.9 |
| 20260505164823 | 65 | 38 | 3.0 | 7.0 | 0.00 | 1.04 | 1.04 | 90 | 1005.0 |
| 20260505164741 | 65 | 105 | 2.0 | 7.0 | 0.00 | 1.04 | 1.04 | 89 | 1005.0 |
| 20260505163727 | 65 | 65 | 1.0 | 4.0 | 0.00 | 1.04 | 1.04 | 90 | 1005.1 |
| 20260505163206 | 65 | 20 | 1.0 | 3.0 | 0.00 | 1.04 | 1.04 | 90 | 1005.1 |
| 20260505162707 | 65 | 39 | 1.0 | 4.0 | 0.00 | 1.04 | 1.04 | 89 | 1005.1 |
| 20260505162200 | 66 | 27 | 2.0 | 4.0 | 0.00 | 1.04 | 1.04 | 89 | 1005.0 |
| 20260505161700 | 66 | 39 | 2.0 | 5.0 | 0.00 | 1.04 | 1.04 | 90 | 1005.0 |
| 20260505161148 | 65 | 105 | 2.0 | 8.0 | 0.00 | 1.04 | 1.04 | 91 | 1004.9 |
| 20260505160645 | 65 | 103 | 3.0 | 8.0 | 0.00 | 1.04 | 1.04 | 90 | 1004.8 |
| 20260505160149 | 65 | 68 | 3.0 | 6.0 | 0.00 | 1.04 | 1.04 | 91 | 1004.8 |
| 20260505153033 | 65 | 102 | 3.0 | 7.0 | 0.00 | 1.04 | 1.04 | 93 | 1004.6 |
| 20260505152948 | 64 | 54 | 3.0 | 6.0 | 0.00 | 1.04 | 1.04 | 94 | 1004.5 |
| 20260505152015 | 64 | 54 | 3.0 | 6.0 | 0.00 | 1.04 | 1.04 | 94 | 1004.5 |
| 20260505151516 | 64 | 24 | 2.0 | 6.0 | 0.00 | 1.04 | 1.04 | 94 | 1004.6 |
| 20260505150955 | 63 | 58 | 3.0 | 8.0 | 0.00 | 1.04 | 1.04 | 95 | 1004.6 |
| 20260505150429 | 63 | 77 | 3.0 | 8.0 | 0.00 | 1.04 | 1.04 | 94 | 1004.6 |
| 20260505140201 | 62 | 94 | 1.0 | 3.0 | 0.00 | 1.04 | 1.04 | 97 | 1005.2 |
| 20260505124829 | 61 | 69 | 0.0 | 1.0 | 0.00 | 1.04 | 1.04 | 97 | 1004.8 |
| 20260505124311 | 60 | 84 | 0.0 | 4.0 | 0.00 | 1.04 | 1.04 | 97 | 1004.8 |
| 20260505123745 | 60 | 303 | 0.0 | 4.0 | 0.00 | 1.04 | 1.04 | 97 | 1004.7 |
| 20260505123220 | 60 | 1 | 0.0 | 1.0 | 0.00 | 1.04 | 1.04 | 97 | 1004.6 |
| 20260505122705 | 60 | 279 | 0.0 | 4.0 | 0.00 | 1.04 | 1.04 | 97 | 1004.6 |
| 20260505122141 | 60 | 233 | 0.0 | 4.0 | 0.00 | 1.04 | 1.04 | 97 | 1004.6 |
| 20260505121639 | 60 | 204 | 0.0 | 1.0 | 0.00 | 1.04 | 1.04 | 97 | 1004.6 |
| 20260505121139 | 60 | 112 | 0.0 | 1.0 | 0.00 | 1.04 | 1.04 | 97 | 1004.6 |
| 20260505120637 | 60 | 220 | 0.0 | 1.0 | 0.00 | 1.04 | 1.04 | 97 | 1004.6 |
| 20260505120116 | 60 | 330 | 0.0 | 1.0 | 0.00 | 1.04 | 1.04 | 97 | 1004.5 |
| 20260505115558 | 60 | 108 | 0.0 | 1.0 | 0.00 | 1.04 | 1.04 | 97 | 1004.4 |
| 20260505115057 | 60 | 108 | 0.0 | 2.0 | 0.00 | 1.04 | 1.04 | 97 | 1004.5 |
| 20260505114558 | 60 | 108 | 0.0 | 2.0 | 0.00 | 1.04 | 1.04 | 97 | 1004.4 |
| 20260505114055 | 60 | 58 | 0.0 | 4.0 | 0.00 | 1.04 | 1.04 | 96 | 1004.4 |
| 20260505113535 | 60 | 314 | 0.0 | 1.0 | 0.00 | 1.04 | 1.04 | 96 | 1004.3 |
| 20260505113014 | 60 | 314 | 0.0 | 1.0 | 0.00 | 1.04 | 1.04 | 96 | 1004.4 |
| 20260505112959 | 60 | 193 | 0.0 | 1.0 | 0.00 | 1.04 | 1.04 | 96 | 1004.3 |
| 20260505112014 | 60 | 18 | 0.0 | 3.0 | 0.00 | 1.04 | 1.04 | 96 | 1004.4 |
| 20260505111512 | 60 | 18 | 0.0 | 2.0 | 0.00 | 1.04 | 1.04 | 96 | 1004.3 |
| 20260505110944 | 60 | 51 | 1.0 | 4.0 | 0.00 | 1.04 | 1.04 | 96 | 1004.3 |
| 20260505110414 | 60 | 41 | 1.0 | 4.0 | 0.00 | 1.04 | 1.04 | 96 | 1004.3 |